Palma de Mallorca, Spain

11:50 AM CEST on June 26, 2017 (GMT +0200)
Palma De Mallorca

Weather History for LEPA - May, 2014

Change the Weather History Date:

Thursday, May 8, 2014

  Actual Average Record
Temperature  
Mean Temperature 64 °F -  
Max Temperature 77 °F 75 °F 77 °F (1999)
Min Temperature 52 °F 55 °F 48 °F (2001)
Growing Degree Days 14 (Base 50)    
Moisture  
Dew Point 56 °F    
Average Humidity 72    
Maximum Humidity 94    
Minimum Humidity 36    
Precipitation  
Precipitation 0.00 in 0.03 in - ()
Sea Level Pressure  
Sea Level Pressure 30.13 in    
Wind  
Wind Speed 5 mph ()    
Max Wind Speed 15 mph    
Max Gust Speed -    
Visibility 10.5 miles    
Events      
Averages and records for this station are not official NWS values.
T = Trace of Precipitation, MM = Missing Value Source: Averaged Metar Reports

Daily Weather History Graph

Daily Weather History Graph

Search for Another Location

Airport or City:

Trip Planner

Search our weather history database for the weather conditions in past years. The results will help you decide how hot, cold, wet, or windy it might be!

Date:

Astronomy

May. 08, 2014 Rise Set
Actual Time 6:42 AM CEST 8:49 PM CEST
Civil Twilight 6:12 AM CEST 9:19 PM CEST
Nautical Twilight 5:36 AM CEST 9:55 PM CEST
Astronomical Twilight 4:56 AM CEST 10:35 PM CEST
Moon 2:37 PM CEST (5/8) 3:03 AM CEST (5/8)
Length of Visible Light 15h 06m
Length of Day
14h 07m
Waxing Gibbous, 62% of the Moon is Illuminated
May 8
Waxing Gibbous
May 14
Full
May 21
Last Quarter
May 28
New
Jun 5
First Quarter

Hourly Weather History & Observations

Time (CEST) Temp. Dew Point Humidity Pressure Visibility Wind Dir Wind Speed Gust Speed Precip Events Conditions
12:00 AM 61 °F 59 °F 89% 30.14 in - ENE 9.2 mph - -  
12:00 AM 60.8 °F 59.0 °F 94% 30.12 in - NE 5.8 mph - N/A   Clear
12:30 AM 60.8 °F 59.0 °F 94% 30.12 in - ENE 9.2 mph - N/A   Clear
1:00 AM 61 °F 58 °F 87% 30.14 in - ENE 9.2 mph - -  
1:00 AM 60.8 °F 59.0 °F 94% 30.12 in 6.2 mi NE 5.8 mph - N/A   Partly Cloudy
1:30 AM 60.8 °F 57.2 °F 88% 30.12 in 6.2 mi NE 5.8 mph - N/A   Partly Cloudy
2:00 AM 60 °F 57 °F 88% 30.14 in 9 mi ENE 3.5 mph - -   Scattered Clouds
2:00 AM 60.8 °F 57.2 °F 88% 30.12 in 6.2 mi ENE 4.6 mph - N/A   Partly Cloudy
2:30 AM 59.0 °F 57.2 °F 94% 30.12 in - ENE 3.5 mph - N/A   Clear
3:00 AM 59 °F 57 °F 89% 30.13 in - Calm Calm - -  
3:00 AM 57.2 °F 55.4 °F 94% 30.12 in - NE 3.5 mph - N/A   Clear
3:30 AM 57.2 °F 55.4 °F 94% 30.12 in - Variable 1.2 mph - N/A   Clear
4:00 AM 56 °F 54 °F 91% 30.13 in - Calm Calm - -  
4:00 AM 55.4 °F 53.6 °F 94% 30.12 in - SSE 1.2 mph - N/A   Clear
4:30 AM 57.2 °F 55.4 °F 94% 30.12 in - South 1.2 mph - N/A   Clear
5:00 AM 55 °F 53 °F 92% 30.13 in 7 mi WNW 2.3 mph - -   Scattered Clouds
5:00 AM 55.4 °F 53.6 °F 94% 30.12 in - Calm Calm - N/A   Clear
5:30 AM 53.6 °F 51.8 °F 94% 30.12 in - NE 1.2 mph - N/A   Clear
6:00 AM 53 °F 52 °F 93% 30.13 in - Calm Calm - -  
6:00 AM 53.6 °F 51.8 °F 94% 30.12 in - East 1.2 mph - N/A   Clear
6:30 AM 53.6 °F 51.8 °F 94% 30.12 in - SW 1.2 mph - N/A   Clear
7:00 AM 52 °F 50 °F 89% 30.14 in - Calm Calm - -  
7:00 AM 53.6 °F 51.8 °F 94% 30.12 in - Calm Calm - N/A   Clear
7:30 AM 53.6 °F 51.8 °F 94% 30.12 in - ENE 4.6 mph - N/A   Clear
8:00 AM 58 °F 53 °F 80% 30.15 in 19 mi Calm Calm - -   Scattered Clouds
8:00 AM 57.2 °F 55.4 °F 94% 30.12 in - Variable 2.3 mph - N/A   Clear
8:30 AM 60.8 °F 55.4 °F 82% 30.15 in - NNE 3.5 mph - N/A   Clear
9:00 AM 66 °F 55 °F 58% 30.17 in - ENE 2.3 mph - -  
9:00 AM 66.2 °F 55.4 °F 68% 30.15 in - NE 3.5 mph - N/A   Clear
9:30 AM 68.0 °F 55.4 °F 64% 30.15 in - ENE 9.2 mph - N/A   Clear
10:00 AM 71 °F 54 °F 44% 30.16 in - ENE 10.4 mph - -  
10:00 AM 69.8 °F 55.4 °F 60% 30.15 in - NE 9.2 mph - N/A   Clear
10:30 AM 69.8 °F 55.4 °F 60% 30.15 in - ENE 9.2 mph - N/A   Clear
11:00 AM 73 °F 54 °F 40% 30.16 in 19 mi ENE 8.1 mph - -   Partly Cloudy
11:00 AM 71.6 °F 55.4 °F 57% 30.15 in - East 9.2 mph - N/A   Clear
11:30 AM 73.4 °F 53.6 °F 50% 30.15 in - East 5.8 mph - N/A   Clear
12:00 PM 75 °F 53 °F 36% 30.16 in - East 4.6 mph - -  
12:00 PM 75.2 °F 53.6 °F 47% 30.15 in 6.2 mi ENE 4.6 mph - N/A   Partly Cloudy
12:30 PM 75.2 °F 53.6 °F 47% 30.15 in 6.2 mi NNE 1.2 mph - N/A   Partly Cloudy
1:00 PM 74 °F 54 °F 40% 30.16 in - SW 15.0 mph - -  
1:00 PM 71.6 °F 55.4 °F 57% 30.15 in - SW 13.8 mph - N/A   Clear
1:30 PM 73.4 °F 57.2 °F 57% 30.15 in 6.2 mi SW 15.0 mph - N/A   Partly Cloudy
2:00 PM 72 °F 56 °F 47% 30.15 in 19 mi SSW 12.7 mph - -   Scattered Clouds
2:00 PM 69.8 °F 57.2 °F 64% 30.15 in 6.2 mi SSW 12.7 mph - N/A   Partly Cloudy
2:30 PM 69.8 °F 57.2 °F 64% 30.15 in - SW 11.5 mph - N/A   Clear
3:00 PM 71 °F 56 °F 49% 30.15 in - WSW 12.7 mph - -  
3:00 PM 69.8 °F 55.4 °F 60% 30.15 in - WSW 10.4 mph - N/A   Clear
3:30 PM 71.6 °F 57.2 °F 60% 30.12 in - SW 10.4 mph - N/A   Clear
4:00 PM 72 °F 56 °F 47% 30.13 in - WSW 5.8 mph - -  
4:00 PM 71.6 °F 57.2 °F 60% 30.12 in - SW 6.9 mph - N/A   Clear
4:30 PM 69.8 °F 57.2 °F 64% 30.12 in - WNW 9.2 mph - N/A   Clear
5:00 PM 70 °F 56 °F 52% 30.12 in 19 mi WSW 10.4 mph - -   Overcast
5:00 PM 69.8 °F 57.2 °F 64% 30.12 in - WSW 9.2 mph - N/A   Clear
5:30 PM 71.6 °F 55.4 °F 57% 30.09 in - West 6.9 mph - N/A   Clear
6:00 PM 72 °F 56 °F 48% 30.11 in - WSW 8.1 mph - -  
6:00 PM 71.6 °F 57.2 °F 60% 30.09 in - WSW 4.6 mph - N/A   Clear
6:30 PM 69.8 °F 57.2 °F 64% 30.09 in - WSW 8.1 mph - N/A   Clear
7:00 PM 70 °F 57 °F 55% 30.10 in - WSW 11.5 mph - -  
7:00 PM 69.8 °F 59.0 °F 68% 30.09 in - WSW 8.1 mph - N/A   Clear
7:30 PM 68.0 °F 57.2 °F 68% 30.09 in - WSW 9.2 mph - N/A   Clear
8:00 PM 67 °F 58 °F 64% 30.11 in 12 mi WSW 10.4 mph - -   Mostly Cloudy
8:00 PM 68.0 °F 57.2 °F 68% 30.09 in - WSW 8.1 mph - N/A   Clear
8:30 PM 66.2 °F 57.2 °F 73% 30.09 in - WSW 5.8 mph - N/A   Clear
9:00 PM 66 °F 58 °F 70% 30.11 in - West 5.8 mph - -  
9:00 PM 66.2 °F 59.0 °F 78% 30.09 in - West 3.5 mph - N/A   Clear
9:30 PM 66.2 °F 57.2 °F 73% 30.09 in - West 3.5 mph - N/A   Clear
10:00 PM 64 °F 58 °F 77% 30.12 in - Calm Calm - -  
10:00 PM 64.4 °F 57.2 °F 77% 30.12 in - Calm Calm - N/A   Clear
10:30 PM 64.4 °F 57.2 °F 77% 30.12 in - NNE 1.2 mph - N/A   Clear
11:00 PM 62.6 °F 57.2 °F 82% 30.12 in - ESE 3.5 mph - N/A   Clear
11:30 PM 60.8 °F 55.4 °F 82% 30.12 in - Variable 2.3 mph - N/A   Clear